Regional Weather Roundup
Issued by NWS

Home | Current Version | Previous Version | Graphics & Text | Print | Product List | Glossary On
Versions: 1 2 3 4 5 6 7 8 9 10 11 12 13 14 15 16 17 18 19 20 21 22 23 24 25 26 27
000
ASUS45 KCYS 231410
RWRWY

WYOMING REGIONAL WEATHER ROUNDUP
NATIONAL WEATHER SERVICE CHEYENNE WY
800 AM MDT SAT SEP 23 2017

NOTE:  "FAIR" INDICATES FEW OR NO CLOUDS BELOW 12,000 FEET
WITH NO SIGNIFICANT WEATHER AND/OR OBSTRUCTIONS TO VISIBILITY.

WYZ001-231500-
YELLOWSTONE NATIONAL PARK

CITY           SKY/WX    TMP DP  RH WIND       PRES   REMARKS
LK YELLOWSTONE NOT AVBL
W YELLOWSTONE  NOT AVBL

$$
WYZ002>013-054>058-071-098>099-231500-
NORTHERN WYOMING

CITY           SKY/WX    TMP DP  RH WIND       PRES   REMARKS
JACKSON        CLOUDY    31  30  96 W5        30.02S WCI  26
CODY           CLOUDY    35  35 100 N8        30.07R FOG     WCI  29
GREYBULL       CLOUDY    41  40  96 CALM      30.06R
WORLAND        CLOUDY    40  40 100 N6        30.05S
SHERIDAN       LGT RAIN  42  41  96 NE3       30.06R
BUFFALO        CLOUDY    39  36  89 SE6       30.06F WCI  35
GILLETTE       CLOUDY    40  37  89 N5        30.06R
HULETT         CLOUDY    41  37  87 E5        30.09R FOG
NEWCASTLE      CLOUDY    41  41 100 SE5       30.08R

$$
WYZ014>020-022>026-101>103-231500-
CENTRAL WYOMING

CITY           SKY/WX    TMP DP  RH WIND       PRES   REMARKS
BIG PINEY      FAIR      30  28  92 NW7       30.01R WCI  23
PINEDALE       FAIR      32  32 100 NW5       30.01S WCI  27
DUBOIS         LGT SNOW  32  30  93 NW3       30.01S
LANDER           N/A    N/A N/A N/A MISG      30.00F
RIVERTON       CLOUDY    39  39 100 NE6       30.01S WCI  35
CASPER         LGT RAIN  39  38  96 NE10      30.03F FOG     WCI  32
DOUGLAS        CLOUDY    42  39  89 SE15      30.04R

$$
WYZ021-027>030-104>119-231500-
SOUTHERN WYOMING

CITY           SKY/WX    TMP DP  RH WIND       PRES   REMARKS
EVANSTON       MOCLDY    31  30  96 N9        29.97S WCI  23
FORT BRIDGER   FOG       35  35 100 NE6       30.00S VSB 1/2 WCI  30
ROCK SPRINGS   CLOUDY    36  34  92 E3        29.99R
DIXON          DRIZZLE   42  38  88 N7        29.97F
RAWLINS        CLOUDY    42  40  92 E6        29.98R
SARATOGA       RAIN      37  37 100 W5        30.02R WCI  34
LARAMIE        CLOUDY    42  38  85 SE9       30.00F
CHEYENNE       CLOUDY    41  36  82 N3        30.01S
TORRINGTON     CLOUDY    44  37  76 NW8       30.01S
PINE BLUFFS    CLOUDY    43  37  81 N9        30.01S

$$




USA.gov is the U.S. government's official web portal to all federal, state and local government web resources and services.